Regional Weather Roundup
Issued by NWS Portland, ME

Home | Current Version | Previous Version | Text Only | Print | Product List | Glossary On
Versions: 1 2 3 4 5 6 7 8 9 10 11 12 13 14 15 16 17 18 19 20 21 22 23 24 25 26 27 28 29 30 31 32 33 34 35 36 37 38 39 40 41 42 43 44 45 46 47 48 49 50
000
ASUS41 KGYX 071205
RWRGYX
WEATHER ROUNDUP FOR MAINE AND NEW HAMPSHIRE
NATIONAL WEATHER SERVICE GRAY ME
700 AM EST WED DEC 07 2016

MEZ002-005-006-010-012-015-018-020-021-024-026-027-029-071300-
MAINE

CITY           SKY/WX    TMP DP  RH WIND       PRES   REMARKS
PORTLAND       CLOUDY    29  23  78 N6        29.99R
6HR MIN TEMP:  28; 6HR MAX TEMP:  30;

SANFORD        LGT SNOW  28  26  92 N6        29.98R FOG
BAR HARBOR     CLOUDY    23  21  92 N5        30.01R
WISCASSET      CLOUDY    28  23  81 CALM      30.00S
6HR MIN TEMP:  27; 6HR MAX TEMP:  28;

ROCKLAND       CLOUDY    31  26  82 NE8       29.99S
FRYEBURG       LGT SNOW  27  25  92 CALM      29.98R FOG
6HR MIN TEMP:  26; 6HR MAX TEMP:  27; 6HR PCP:  0.02;

LEWISTONAUBURN LGT SNOW  26  23  88 N5        29.98S FOG
AUGUSTA        CLOUDY    24  21  88 CALM      29.99R
6HR MIN TEMP:  22; 6HR MAX TEMP:  24;

WATERVILLE     CLOUDY    23  21  92 N3        29.96S
BANGOR         CLOUDY    22  19  89 CALM      30.00F
6HR MIN TEMP:  18; 6HR MAX TEMP:  22;

GREENVILLE       N/A     19  19 100 CALM      29.88F
6HR MIN TEMP:  18; 6HR MAX TEMP:  20;

MILLINOCKET    CLOUDY    17  15  92 CALM      30.00S
6HR MIN TEMP:  13; 6HR MAX TEMP:  17;

HOULTON        CLOUDY    14  12  92 CALM      29.98R
6HR MIN TEMP:   8; 6HR MAX TEMP:  16;

PRESQUE ISLE   CLOUDY    13  11  92 CALM      29.98F
6HR MIN TEMP:   2; 6HR MAX TEMP:  15;

FRENCHVILLE    CLOUDY    17  12  80 NE3       29.92F
6HR MIN TEMP:  17; 6HR MAX TEMP:  18;

CARIBOU        CLOUDY    16  13  88 CALM      29.96F FOG
6HR MIN TEMP:  13; 6HR MAX TEMP:  16;

$$

NHZ002-005-008-009-011-012-014-071300-
NEW HAMPSHIRE

CITY           SKY/WX    TMP DP  RH WIND       PRES   REMARKS
PORTSMOUTH     LGT SNOW  31  28  88 N6        29.96R FOG
ROCHESTER      LGT SNOW  29  25  85 N6        29.96S FOG
6HR MIN TEMP:  29; 6HR MAX TEMP:  31; 6HR PCP: TRACE;

NASHUA         LGT SNOW  32  32 100 NW5       29.98R FOG
MANCHESTER     LGT SNOW  32  30  92 N3        29.96R VSB 1
6HR MIN TEMP:  32; 6HR MAX TEMP:  34; 6HR PCP:  0.06;

CONCORD        LGT SNOW  32  29  88 NW5       29.97R FOG
6HR MIN TEMP:  32; 6HR MAX TEMP:  34; 6HR PCP:  0.05;

LACONIA        LGT SNOW  29  27  92 E3        29.97R FOG
PLYMOUTH       LGT SNOW  29  29  97 CALM      29.97R
BERLIN         LGT SNOW  25  19  80 CALM      29.92R VSB 3/4
6HR MIN TEMP:  22; 6HR MAX TEMP:  24; 6HR PCP:  0.01;

WHITEFIELD     LGT SNOW  25  22  88 CALM      29.92R FOG
6HR MIN TEMP:  23; 6HR MAX TEMP:  25; 6HR PCP:  0.03;

JAFFREY        LGT SNOW  31  29  92 CALM      29.94R FOG
6HR MIN TEMP:  31; 6HR MAX TEMP:  32; 6HR PCP:  0.12;

KEENE          MIX PCPN  32  31  96 CALM      29.96S FOG
LEBANON        LGT SNOW  31  29  92 CALM      29.94S FOG
6HR MIN TEMP:  30; 6HR MAX TEMP:  31; 6HR PCP:  0.12;

MT WASHINGTON  SNOW      21  21 100 S22         N/A  VSB 1/8 WCI   5
6HR MIN TEMP:  20; 6HR MAX TEMP:  25; 6HR PCP:  0.07;

$$

VTZ005-007-008-071300-
VERMONT

CITY           SKY/WX    TMP DP  RH WIND       PRES   REMARKS
ST JOHNSBURY     N/A     27  25  92 MISG      29.92S
MONTPELIER     CLOUDY    26  25  96 CALM      29.93F
BURLINGTON     CLOUDY    34  31  88 S13       29.89F
$$

MAZ007-012-024-CTZ003-RIZ002-NYZ038-NYZ072-071300-
SOUTHERN NEW ENGLAND AND NY

CITY           SKY/WX    TMP DP  RH WIND       PRES   REMARKS
BOSTON         LGT RAIN  39  37  92 E10       29.96R
WORCESTER      LGT SNOW  32  31  96 VRB5      29.94R FOG
NANTUCKET      LGT RAIN  41  37  86 NE9       29.89F
PROVIDENCE     LGT RAIN  38  35  89 N8        29.96R FOG
HARTFORD       DRIZZLE   34  33  96 N3        29.98R FOG
ALBANY         LGT SNOW  33  31  92 CALM      29.96R FOG
NEW YORK CITY  CLOUDY    41  37  86 NE12      29.94R
$$

ANZ081-ANZ082-ANZ150-NHZ014-MEZ023>029-071300-
COASTAL MARINE OBSERVATIONS

STATION/POSITION TIME  TEMP    WIND        PRES    WAVE
                       AIR SEA DIR/SP/G            HT/PER
                 (UTC) (F)     (DEG/KT/KT) (MB)    (FT/S)
MOUNT DESERT ROC 1200   34                 1015.7R
MATINICUS ROCK   1100   35      70/ 14/ 16 1014.4R
ISLE OF SHOALS   1100   40      90/ 13/ 15 1013.8R
JEFFREYS LEDGE   1108      51                N/A     3/10
CASHES LEDGE BUO 1050   39 50   70/ 12/ 14 1014.2    3/10
GEORGES BANK BUO 1050   45 51              1011.4    4/ 9
$$

.............KEY..............
   WCI - WIND CHILL
   TC  - TEMPERATURE IN CELSIUS
   VSB - VISIBILITY IN MILES
   HX  - HEAT INDEX
   FAIR- INDICATES FEW OR NO CLOUDS BELOW 12,000 FT, WITH NO
         SIGNIFICANT WEATHER AND/OR OBSTRUCTIONS TO VISIBILITY.






USA.gov is the U.S. government's official web portal to all federal, state and local government web resources and services.